Location: Asheville, NC
(35.6000°N, 82.5500°W)
Time: 07:51:50
(UTC-04:00)

M-CUBED/EXP-1 PRIME - Pass Details

Date: 09 February 2018
Orbit: 431 x 676 km, 101.7° (Epoch: 21 May)

Event Time Altitude Azimuth Distance (km) Brightness Sun altitude
Rises 05:54:35 0° 23° (NNE) 2,433 ? -18.5°
Reaches altitude 10° 05:56:36 10° 29° (NNE) 1,579 ? -18.0°
Maximum altitude 05:59:51 48° 105° (ESE) 615 ? -17.4°
Drops below altitude 10° 06:03:16 10° 181° (S) 1,662 ? -16.7°
Sets 06:05:26 0° 187° (S) 2,579 ? -16.3°
